Regional Weather Roundup
Issued by NWS Cleveland, OH

Home | Current Version | Previous Version | Text Only | Print | Product List | Glossary Off
Versions: 1 2 3 4 5 6 7 8 9 10 11 12 13 14 15 16 17 18 19 20 21 22 23 24 25 26 27 28 29 30 31 32 33 34 35 36 37 38 39 40 41 42 43 44 45 46 47 48 49 50

000
ASUS41 KCLE 191410
RWRCLE
OHIO REGIONAL WEATHER ROUNDUP
NATIONAL WEATHER SERVICE WILMINGTON, OH
900 AM EST FRI JAN 19 2018

NOTE: "FAIR" INDICATES FEW OR NO CLOUDS BELOW 12,000 FEET WITH NO
SIGNIFICANT WEATHER AND/OR OBSTRUCTIONS TO VISIBILITY.

OHZ001>008-015>018-024>027-034-035-043-044-191500-
   NORTHWEST OHIO

CITY           SKY/WX    TMP DP  RH WIND       PRES   REMARKS
DEFIANCE       FAIR      22  13  68 SW12      30.01F WCI  10
FINDLAY        FAIR      24  13  62 S16       30.01F WCI  11
TOLEDO EXPRESS FAIR      25  15  66 SW15G22   29.99S WCI  13
TOLEDO EXEC    FAIR      24  14  65 SW14      30.01S WCI  12
LIMA           FAIR      22  13  68 SW12      30.04S WCI  10
$$

OHZ009>014-019>023-028>033-038-089-191500-
   NORTHEAST OHIO

CITY           SKY/WX    TMP DP  RH WIND       PRES   REMARKS
CLE-HOPKINS    FAIR      24  13  62 S13       30.06S WCI  12
CLE-LAKEFRONT  FAIR      26  13  57 S15       30.03F WCI  14
CUY CO. ARPT   SUNNY     27  12  54 SW12      30.03F WCI  16
LORAIN-ELYRIA  FAIR      24  11  57 SW12      30.03F WCI  13
ASHTABULA      FAIR      21  11  65 S13       30.02F WCI   9
AKRON-CANTON   FAIR      20  10  65 SW14      30.06S WCI   7
WOOSTER        FAIR      21  11  65 SW14      30.06S WCI   8
MANSFIELD      FAIR      24  12  60 SW15      30.04R WCI  11
YOUNGSTOWN     FAIR      22  11  62 S13       30.03F WCI  10
$$

OHZ042-051>053-060>062-070>072-077>081-191500-
  SOUTHWEST OHIO

CITY           SKY/WX    TMP DP  RH WIND       PRES   REMARKS
CINC-COVINGTON FAIR      22  13  68 S13       30.16S WCI  10
CINC-LUNKEN    FAIR      21  12  68 S5        30.22R WCI  15
HAMILTON       FAIR      23  13  65 S5        30.19R WCI  17
DAYTON         FAIR      21  13  71 S14       30.11F WCI   8
WRIGHT-PAT AFB FAIR      22   8  54 S14       30.13S WCI   9
DAYTON GENERAL FAIR      21  12  68 SW9       30.13F WCI  11
WILMINGTON     FAIR      20  12  71 SW13      30.14S WCI   7
$$

OHZ036-037-039>041-045>050-054>059-063>069-073>076-082>088-191500-
  CENTRAL AND SOUTHEAST OHIO

CITY           SKY/WX    TMP DP  RH WIND       PRES   REMARKS
COLUMBUS       PTSUNNY   20  12  71 S8        30.15S WCI  10
OSU AIRPORT    FAIR      20  12  71 S12       30.12F WCI   8
BOLTON FIELD   SUNNY     19  10  68 SW12      30.14F WCI   7
RICKENBACK AFB FAIR      20  11  68 SW14      30.16S WCI   7
NEWARK         FAIR      21  10  62 SW10      30.13F WCI  10
MARION         FAIR      19  10  68 S15       30.07F WCI   5
LANCASTER      FAIR      22  11  62 S8        30.16S WCI  12
ZANESVILLE     FAIR      20  10  65 S13       30.15F WCI   7
NEW PHILLY     FAIR      22  10  60 VRB6      30.13F WCI  14
$$




USA.gov is the U.S. government's official web portal to all federal, state and local government web resources and services.